Minot, ND

8:37 AM CDT on May 23, 2017 (GMT -0500)
Minot International

Weather History for KMOT - January, 2013

Change the Weather History Date:

Saturday, January 12, 2013

  Actual Average Record
Temperature  
Mean Temperature 0 °F 12 °F  
Max Temperature 4 °F 20 °F 56 °F (1987)
Min Temperature -5 °F 3 °F -41 °F (1916)
Degree Days  
Heating Degree Days 65 53  
Month to date heating degree days 560 636  
Since 1 July heating degree days 4305 4231  
Moisture  
Dew Point -6 °F    
Average Humidity 76    
Maximum Humidity 87    
Minimum Humidity 65    
Precipitation  
Precipitation T in 0.02 in 0.22 in (1993)
Month to date precipitation T 0.21  
Year to date precipitation T 0.21  
Sea Level Pressure  
Sea Level Pressure 30.10 in    
Wind  
Wind Speed 16 mph (WNW)    
Max Wind Speed 31 mph    
Max Gust Speed 40 mph    
Visibility 6 miles    
Events Fog , Snow    
T = Trace of Precipitation, MM = Missing Value Source: NWS Daily Summary

Daily Weather History Graph

Daily Weather History Graph

Search for Another Location

Airport or City:

Trip Planner

Search our weather history database for the weather conditions in past years. The results will help you decide how hot, cold, wet, or windy it might be!

Date:

Astronomy

Jan. 12, 2013 Rise Set
Actual Time 8:32 AM CST 5:14 PM CST
Civil Twilight 7:57 AM CST 5:50 PM CST
Nautical Twilight 7:18 AM CST 6:29 PM CST
Astronomical Twilight 6:40 AM CST 7:06 PM CST
Moon 8:44 AM CST (1/12) 6:56 PM CST (1/12)
Length of Visible Light 9h 53m
Length of Day
8h 42m
New Moon, 1% of the Moon is Illuminated
Jan 12
New Moon
Jan 18
First Quarter
Jan 26
Full
Feb 3
Last Quarter
Feb 10
New

Hourly Weather History & Observations

Time (CST) Temp. Windchill Dew Point Humidity Pressure Visibility Wind Dir Wind Speed Gust Speed Precip Events Conditions
12:54 AM 3.0 °F -19.7 °F -0.9 °F 84% 29.95 in 1.0 mi NW 24.2 mph 32.2 mph 0.00 in Snow Light Snow
1:06 AM 3.2 °F -20.3 °F -2.2 °F 78% 29.83 in 0.8 mi NW 26.5 mph 33.4 mph N/A Snow Light Snow
1:37 AM 1.4 °F -22.7 °F -2.2 °F 85% 29.84 in 0.5 mi NW 26.5 mph 36.8 mph 0.00 in Fog , Snow Snow
1:45 AM 3.2 °F -21.5 °F -2.2 °F 78% 29.85 in 0.8 mi NW 29.9 mph 36.8 mph 0.00 in Snow Light Snow
1:54 AM 1.9 °F -21.6 °F -2.0 °F 83% 29.98 in 0.5 mi NW 25.3 mph 38.0 mph 0.00 in Fog , Snow Snow
2:15 AM 1.4 °F -23.2 °F -2.2 °F 85% 29.86 in 0.2 mi NW 27.6 mph 38.0 mph 0.00 in Fog Light Freezing Fog
2:31 AM 1.4 °F -22.3 °F -2.2 °F 85% 29.87 in 0.5 mi NW 25.3 mph 34.5 mph 0.00 in Fog Light Freezing Fog
2:54 AM 1.9 °F -21.2 °F -2.0 °F 83% 30.02 in 0.5 mi NW 24.2 mph 32.2 mph 0.00 in Fog Light Freezing Fog
3:01 AM 1.4 °F -21.4 °F -2.2 °F 85% 29.89 in 0.5 mi NW 23.0 mph 32.2 mph N/A Fog Light Freezing Fog
3:23 AM 1.4 °F -20.5 °F -2.2 °F 85% 29.90 in 1.0 mi NW 20.7 mph 31.1 mph 0.00 in Snow Light Snow
3:28 AM 1.4 °F -21.9 °F -2.2 °F 85% 29.90 in 3.0 mi NW 24.2 mph 29.9 mph 0.00 in Snow Light Snow
3:44 AM 1.4 °F -22.7 °F -2.2 °F 85% 29.90 in 2.5 mi NW 26.5 mph 33.4 mph 0.00 in Snow Light Snow
3:54 AM 1.9 °F -21.6 °F -4.0 °F 76% 30.04 in 3.0 mi NW 25.3 mph 32.2 mph 0.00 in Snow Light Snow
4:54 AM -0.0 °F -23.8 °F -5.1 °F 79% 30.06 in 8.0 mi NW 24.2 mph 33.4 mph 0.00 in   Partly Cloudy
5:54 AM -0.0 °F -23.3 °F -7.1 °F 72% 30.09 in 10.0 mi NW 23.0 mph 29.9 mph N/A   Mostly Cloudy
6:44 AM -2.2 °F -25.7 °F -7.6 °F 78% 29.99 in 2.5 mi NW 21.9 mph - 0.00 in   Mostly Cloudy
6:54 AM -2.9 °F -26.7 °F -8.0 °F 79% 30.14 in 3.0 mi NW 21.9 mph - 0.00 in   Scattered Clouds
7:54 AM -2.9 °F -26.1 °F -9.0 °F 75% 30.17 in 3.0 mi NW 20.7 mph 28.8 mph 0.00 in   Clear
8:54 AM -2.9 °F -25.6 °F -9.0 °F 75% 30.18 in 10.0 mi NW 19.6 mph - 0.00 in   Clear
9:54 AM -4.0 °F -25.8 °F -9.9 °F 76% 30.20 in 8.0 mi NW 17.3 mph - 0.00 in   Clear
10:54 AM -4.0 °F -26.4 °F -11.0 °F 72% 30.23 in 7.0 mi WNW 18.4 mph - 0.00 in   Clear
11:54 AM -2.9 °F -25.6 °F -9.9 °F 72% 30.23 in 9.0 mi WNW 19.6 mph - 0.00 in   Clear
12:54 PM -0.0 °F -20.7 °F -8.0 °F 69% 30.23 in 10.0 mi WNW 17.3 mph - 0.00 in   Clear
1:54 PM -0.0 °F -20.1 °F -7.1 °F 72% 30.24 in 10.0 mi WNW 16.1 mph - 0.00 in   Clear
2:54 PM 1.0 °F -18.0 °F -7.1 °F 69% 30.26 in 10.0 mi WNW 15.0 mph - N/A   Clear
3:54 PM 1.9 °F -14.7 °F -6.0 °F 69% 30.27 in 10.0 mi WNW 11.5 mph - N/A   Clear
4:54 PM -0.0 °F -14.2 °F -9.0 °F 66% 30.28 in 10.0 mi WNW 8.1 mph - N/A   Clear
5:54 PM -2.0 °F -12.2 °F -9.9 °F 69% 30.28 in 10.0 mi WSW 4.6 mph - N/A   Clear
6:54 PM -5.1 °F -17.6 °F -11.0 °F 76% 30.29 in 10.0 mi SW 5.8 mph - N/A   Clear
7:54 PM -2.9 °F -11.2 °F -11.9 °F 65% 30.28 in 10.0 mi West 3.5 mph - N/A   Clear
8:54 PM -4.0 °F -12.4 °F -11.9 °F 69% 30.27 in 10.0 mi SW 3.5 mph - N/A   Clear
9:54 PM -2.9 °F -19.8 °F -11.0 °F 68% 30.27 in 10.0 mi SW 10.4 mph - N/A   Clear
10:54 PM -2.9 °F -18.8 °F -11.0 °F 68% 30.27 in 10.0 mi SW 9.2 mph - N/A   Clear
11:54 PM -2.0 °F -20.5 °F -9.9 °F 69% 30.27 in 10.0 mi SW 12.7 mph - N/A   Clear